CHINASAT 1E (ZX 1E)

Last updated on Sat Jun 29 2024 00:02:41 GMT+0000 (Coordinated Universal Time)

1 53813U 22112A 24180.47835757 -.00000146 00000+0 00000+0 0 9999 2 53813 0.0141 195.6764 0001173 248.0388 86.9809 1.00271734 6631
UTC large
Height (km)
Speed (km/s)
/
Latitude / Longitude
Inclination (degrees)
Orbital Period (minutes)
Azimuth
Elevation
Range (km)
Doppler Factor

Next 0 passes for location: London (51.5072 / 0.1276)

Sorry there are no passes over London.